Time,TemperatureF,DewpointF,PressureIn,WindDirection,WindDirectionDegrees,WindSpeedMPH,WindSpeedGustMPH,Humidity,HourlyPrecipIn,Conditions,Clouds,dailyrainin,SoftwareType,DateUTC
2013-01-11 00:06:00,31.0,-99.9,28.92,NW,315,0.0,-999.0,-999,-99.99,,,-99.99,,2013-01-11 00:06:00,
2013-01-11 00:22:00,30.0,-99.9,28.93,NW,315,1.0,-999.0,-999,-99.99,,,-99.99,,2013-01-11 00:22:00,
2013-01-11 00:32:00,29.8,-99.9,28.93,NW,315,0.0,-999.0,-999,-99.99,,,-99.99,,2013-01-11 00:32:00,
2013-01-11 00:38:00,29.4,-99.9,28.93,NW,315,0.0,-999.0,-999,-99.99,,,-99.99,,2013-01-11 00:38:00,
2013-01-11 00:44:00,29.3,-99.9,28.93,NW,315,0.0,-999.0,-999,-99.99,,,-99.99,,2013-01-11 00:44:00,
2013-01-11 00:50:00,29.1,-99.9,28.93,NW,315,0.0,-999.0,-999,-99.99,,,-99.99,,2013-01-11 00:50:00,
2013-01-11 00:56:00,29.3,-99.9,28.93,NW,315,0.0,-999.0,-999,-99.99,,,-99.99,,2013-01-11 00:56:00,
2013-01-11 01:02:00,29.4,-99.9,28.93,NW,315,0.0,-999.0,-999,-99.99,,,-99.99,,2013-01-11 01:02:00,
2013-01-11 01:08:00,30.1,-99.9,28.93,NW,315,0.0,-999.0,-999,-99.99,,,-99.99,,2013-01-11 01:08:00,
2013-01-11 01:14:00,30.6,-99.9,28.93,NW,315,0.0,-999.0,-999,-99.99,,,-99.99,,2013-01-11 01:14:00,
2013-01-11 01:20:00,31.0,-99.9,28.93,NW,315,0.0,-999.0,-999,-99.99,,,-99.99,,2013-01-11 01:20:00,
2013-01-11 01:26:00,31.3,-99.9,28.93,NW,315,0.0,-999.0,-999,-99.99,,,-99.99,,2013-01-11 01:26:00,
2013-01-11 01:32:00,31.7,-99.9,28.93,NW,315,0.0,-999.0,-999,-99.99,,,-99.99,,2013-01-11 01:32:00,
2013-01-11 01:38:00,31.9,-99.9,28.93,NW,315,0.0,-999.0,-999,-99.99,,,-99.99,,2013-01-11 01:38:00,
2013-01-11 01:44:00,32.0,-99.9,28.93,NW,315,0.0,-999.0,-999,-99.99,,,-99.99,,2013-01-11 01:44:00,
2013-01-11 01:52:00,32.0,-99.9,28.93,NW,315,0.0,-999.0,-999,-99.99,,,-99.99,,2013-01-11 01:52:00,
2013-01-11 01:58:00,32.0,-99.9,28.93,NW,315,0.0,-999.0,-999,-99.99,,,-99.99,,2013-01-11 01:58:00,
2013-01-11 02:04:00,32.1,-99.9,28.93,NW,315,0.0,-999.0,-999,-99.99,,,-99.99,,2013-01-11 02:04:00,
2013-01-11 02:10:00,32.2,-99.9,28.92,NW,315,0.0,-999.0,-999,-99.99,,,-99.99,,2013-01-11 02:10:00,
2013-01-11 02:22:00,32.0,-99.9,28.92,NW,315,0.0,-999.0,-999,-99.99,,,-99.99,,2013-01-11 02:22:00,
2013-01-11 02:28:00,31.4,-99.9,28.92,NW,315,0.0,-999.0,-999,-99.99,,,-99.99,,2013-01-11 02:28:00,
2013-01-11 02:34:00,31.2,-99.9,28.92,NW,315,0.0,-999.0,-999,-99.99,,,-99.99,,2013-01-11 02:34:00,
2013-01-11 02:42:00,31.2,-99.9,28.92,NW,315,0.0,-999.0,-999,-99.99,,,-99.99,,2013-01-11 02:42:00,
2013-01-11 02:48:00,31.3,-99.9,28.92,NW,315,0.0,-999.0,-999,-99.99,,,-99.99,,2013-01-11 02:48:00,
2013-01-11 02:54:00,31.4,-99.9,28.92,NW,315,0.0,-999.0,-999,-99.99,,,-99.99,,2013-01-11 02:54:00,
2013-01-11 03:00:00,31.5,-99.9,28.92,NW,315,0.0,-999.0,-999,-99.99,,,-99.99,,2013-01-11 03:00:00,
2013-01-11 03:05:00,31.8,-99.9,28.92,NW,315,0.0,-999.0,-999,-99.99,,,-99.99,,2013-01-11 03:05:00,
2013-01-11 03:12:00,32.0,-99.9,28.92,NW,315,0.0,-999.0,-999,-99.99,,,-99.99,,2013-01-11 03:12:00,
2013-01-11 03:22:00,32.5,-99.9,28.92,NW,315,1.0,-999.0,-999,-99.99,,,-99.99,,2013-01-11 03:22:00,
2013-01-11 03:28:00,32.8,-99.9,28.92,NW,315,0.0,-999.0,-999,-99.99,,,-99.99,,2013-01-11 03:28:00,
2013-01-11 03:34:00,32.9,-99.9,28.92,NW,315,0.0,-999.0,-999,-99.99,,,-99.99,,2013-01-11 03:34:00,
2013-01-11 03:40:00,32.9,-99.9,28.92,NW,315,0.0,-999.0,-999,-99.99,,,-99.99,,2013-01-11 03:40:00,
2013-01-11 03:52:00,33.0,-99.9,28.92,NW,315,0.0,-999.0,-999,-99.99,,,-99.99,,2013-01-11 03:52:00,
2013-01-11 03:58:00,33.0,-99.9,28.92,NW,315,0.0,-999.0,-999,-99.99,,,-99.99,,2013-01-11 03:58:00,
2013-01-11 04:04:00,33.1,-99.9,28.92,NW,315,0.0,-999.0,-999,-99.99,,,-99.99,,2013-01-11 04:04:00,
2013-01-11 04:10:00,33.2,-99.9,28.92,NW,315,0.0,-999.0,-999,-99.99,,,-99.99,,2013-01-11 04:10:00,
2013-01-11 04:16:00,33.3,-99.9,28.92,NW,315,0.0,-999.0,-999,-99.99,,,-99.99,,2013-01-11 04:16:00,
2013-01-11 04:22:00,33.5,-99.9,28.92,NW,315,0.0,-999.0,-999,-99.99,,,-99.99,,2013-01-11 04:22:00,
2013-01-11 04:28:00,33.3,-99.9,28.92,NW,315,0.0,-999.0,-999,-99.99,,,-99.99,,2013-01-11 04:28:00,
2013-01-11 04:34:00,33.5,-99.9,28.92,NNW,337,3.0,-999.0,-999,-99.99,,,-99.99,,2013-01-11 04:34:00,
2013-01-11 04:40:00,33.5,-99.9,28.92,NNW,337,3.0,-999.0,-999,-99.99,,,-99.99,,2013-01-11 04:40:00,
2013-01-11 04:46:00,33.5,-99.9,28.92,NNW,337,0.0,-999.0,-999,-99.99,,,-99.99,,2013-01-11 04:46:00,
2013-01-11 04:52:00,33.3,-99.9,28.92,NW,315,1.0,-999.0,-999,-99.99,,,-99.99,,2013-01-11 04:52:00,
2013-01-11 04:58:00,33.3,-99.9,28.92,West,270,3.0,-999.0,-999,-99.99,,,-99.99,,2013-01-11 04:58:00,
2013-01-11 05:04:00,33.3,-99.9,28.92,West,270,0.0,-999.0,-999,-99.99,,,-99.99,,2013-01-11 05:04:00,
2013-01-11 05:08:00,33.3,-99.9,28.92,West,270,0.0,-999.0,-999,-99.99,,,-99.99,,2013-01-11 05:08:00,
2013-01-11 05:14:00,33.6,-99.9,28.92,West,270,0.0,-999.0,-999,-99.99,,,-99.99,,2013-01-11 05:14:00,
2013-01-11 05:20:00,33.7,-99.9,28.92,West,270,0.0,-999.0,-999,-99.99,,,-99.99,,2013-01-11 05:20:00,
2013-01-11 05:26:00,33.7,-99.9,28.92,West,270,0.0,-999.0,-999,-99.99,,,-99.99,,2013-01-11 05:26:00,
2013-01-11 05:32:00,33.8,-99.9,28.92,West,270,1.0,-999.0,-999,-99.99,,,-99.99,,2013-01-11 05:32:00,
2013-01-11 05:34:00,33.8,-99.9,28.92,West,270,2.0,-999.0,-999,-99.99,,,-99.99,,2013-01-11 05:34:00,
2013-01-11 05:40:00,34.0,-99.9,28.92,West,270,1.0,-999.0,-999,-99.99,,,-99.99,,2013-01-11 05:40:00,
2013-01-11 05:46:00,34.2,-99.9,28.92,West,270,0.0,-999.0,-999,-99.99,,,-99.99,,2013-01-11 05:46:00,
2013-01-11 05:52:00,34.4,-99.9,28.92,WSW,247,2.0,-999.0,-999,-99.99,,,-99.99,,2013-01-11 05:52:00,
2013-01-11 05:58:00,34.4,-99.9,28.92,WSW,247,2.0,-999.0,-999,-99.99,,,-99.99,,2013-01-11 05:58:00,
2013-01-11 06:04:00,34.5,-99.9,28.92,WSW,247,1.0,-999.0,-999,-99.99,,,-99.99,,2013-01-11 06:04:00,
2013-01-11 06:10:00,34.6,-99.9,28.92,West,270,4.0,-999.0,-999,-99.99,,,-99.99,,2013-01-11 06:10:00,
2013-01-11 06:16:00,34.8,-99.9,28.92,WSW,247,4.0,-999.0,-999,-99.99,,,-99.99,,2013-01-11 06:16:00,
2013-01-11 06:22:00,34.9,-99.9,28.92,West,270,4.0,-999.0,-999,-99.99,,,-99.99,,2013-01-11 06:22:00,
2013-01-11 06:28:00,34.9,-99.9,28.93,WNW,292,4.0,-999.0,-999,-99.99,,,-99.99,,2013-01-11 06:28:00,
2013-01-11 06:34:00,35.0,-99.9,28.93,West,270,4.0,-999.0,-999,-99.99,,,-99.99,,2013-01-11 06:34:00,
2013-01-11 06:40:00,35.0,-99.9,28.93,WNW,292,4.0,-999.0,-999,-99.99,,,-99.99,,2013-01-11 06:40:00,
2013-01-11 06:46:00,34.9,-99.9,28.93,WNW,292,3.0,-999.0,-999,-99.99,,,-99.99,,2013-01-11 06:46:00,
2013-01-11 06:52:00,34.8,-99.9,28.93,WNW,292,2.0,-999.0,-999,-99.99,,,-99.99,,2013-01-11 06:52:00,
2013-01-11 06:58:00,34.8,-99.9,28.93,WNW,292,3.0,-999.0,-999,-99.99,,,-99.99,,2013-01-11 06:58:00,
2013-01-11 07:04:00,34.9,-99.9,28.93,West,270,4.0,-999.0,-999,-99.99,,,-99.99,,2013-01-11 07:04:00,
2013-01-11 07:10:00,35.0,-99.9,28.93,West,270,3.0,-999.0,-999,-99.99,,,-99.99,,2013-01-11 07:10:00,
2013-01-11 07:16:00,35.3,-99.9,28.93,West,270,3.0,-999.0,-999,-99.99,,,-99.99,,2013-01-11 07:16:00,
2013-01-11 07:22:00,35.2,-99.9,28.93,West,270,3.0,-999.0,-999,-99.99,,,-99.99,,2013-01-11 07:22:00,
2013-01-11 07:28:00,35.0,-99.9,28.93,West,270,2.0,-999.0,-999,-99.99,,,-99.99,,2013-01-11 07:28:00,
2013-01-11 07:34:00,35.2,-99.9,28.94,West,270,3.0,-999.0,-999,-99.99,,,-99.99,,2013-01-11 07:34:00,
2013-01-11 07:40:00,35.2,-99.9,28.94,West,270,2.0,-999.0,-999,-99.99,,,-99.99,,2013-01-11 07:40:00,
2013-01-11 07:46:00,35.0,-99.9,28.94,West,270,2.0,-999.0,-999,-99.99,,,-99.99,,2013-01-11 07:46:00,
2013-01-11 07:52:00,34.8,-99.9,28.94,West,270,1.0,-999.0,-999,-99.99,,,-99.99,,2013-01-11 07:52:00,
2013-01-11 07:58:00,34.8,-99.9,28.94,WSW,247,3.0,-999.0,-999,-99.99,,,-99.99,,2013-01-11 07:58:00,
2013-01-11 08:04:00,34.8,-99.9,28.94,WSW,247,0.0,-999.0,-999,-99.99,,,-99.99,,2013-01-11 08:04:00,
2013-01-11 08:10:00,34.8,-99.9,28.94,WSW,247,0.0,-999.0,-999,-99.99,,,-99.99,,2013-01-11 08:10:00,
2013-01-11 08:16:00,34.9,-99.9,28.94,WSW,247,0.0,-999.0,-999,-99.99,,,-99.99,,2013-01-11 08:16:00,
2013-01-11 08:22:00,34.9,-99.9,28.94,WSW,247,0.0,-999.0,-999,-99.99,,,-99.99,,2013-01-11 08:22:00,
2013-01-11 08:28:00,34.9,-99.9,28.94,WSW,247,0.0,-999.0,-999,-99.99,,,-99.99,,2013-01-11 08:28:00,
2013-01-11 08:34:00,35.0,-99.9,28.94,WSW,247,3.0,-999.0,-999,-99.99,,,-99.99,,2013-01-11 08:34:00,
2013-01-11 08:40:00,35.2,-99.9,28.94,West,270,2.0,-999.0,-999,-99.99,,,-99.99,,2013-01-11 08:40:00,
2013-01-11 08:46:00,35.2,-99.9,28.94,West,270,2.0,-999.0,-999,-99.99,,,-99.99,,2013-01-11 08:46:00,
2013-01-11 08:52:00,35.2,-99.9,28.94,West,270,0.0,-999.0,-999,-99.99,,,-99.99,,2013-01-11 08:52:00,
2013-01-11 08:58:00,35.3,-99.9,28.94,West,270,1.0,-999.0,-999,-99.99,,,-99.99,,2013-01-11 08:58:00,
2013-01-11 09:04:00,35.4,-99.9,28.94,NNE,22,2.0,-999.0,-999,-99.99,,,-99.99,,2013-01-11 09:04:00,
2013-01-11 09:10:00,35.5,-99.9,28.94,West,270,3.0,-999.0,-999,-99.99,,,-99.99,,2013-01-11 09:10:00,
2013-01-11 09:16:00,35.7,-99.9,28.94,WNW,292,1.0,-999.0,-999,-99.99,,,-99.99,,2013-01-11 09:16:00,
2013-01-11 09:22:00,35.9,-99.9,28.94,WNW,292,1.0,-999.0,-999,-99.99,,,-99.99,,2013-01-11 09:22:00,
2013-01-11 09:28:00,35.9,-99.9,28.94,WNW,292,1.0,-999.0,-999,-99.99,,,-99.99,,2013-01-11 09:28:00,
2013-01-11 09:34:00,35.9,-99.9,28.94,WNW,292,0.0,-999.0,-999,-99.99,,,-99.99,,2013-01-11 09:34:00,
2013-01-11 09:40:00,36.0,-99.9,28.94,North,-999,1.0,-999.0,-999,-99.99,,,-99.99,,2013-01-11 09:40:00,
2013-01-11 09:46:00,36.0,-99.9,28.94,West,270,3.0,-999.0,-999,-99.99,,,-99.99,,2013-01-11 09:46:00,
2013-01-11 09:52:00,36.0,-99.9,28.94,West,270,1.0,-999.0,-999,-99.99,,,-99.99,,2013-01-11 09:52:00,
2013-01-11 09:58:00,36.0,-99.9,28.94,West,270,2.0,-999.0,-999,-99.99,,,-99.99,,2013-01-11 09:58:00,
2013-01-11 10:04:00,35.9,-99.9,28.93,West,270,0.0,-999.0,-999,-99.99,,,-99.99,,2013-01-11 10:04:00,
2013-01-11 10:10:00,35.8,-99.9,28.93,West,270,0.0,-999.0,-999,-99.99,,,-99.99,,2013-01-11 10:10:00,
2013-01-11 10:16:00,35.7,-99.9,28.93,WSW,247,2.0,-999.0,-999,-99.99,,,-99.99,,2013-01-11 10:16:00,
2013-01-11 10:22:00,35.8,-99.9,28.94,WSW,247,2.0,-999.0,-999,-99.99,,,-99.99,,2013-01-11 10:22:00,
2013-01-11 10:28:00,36.0,-99.9,28.94,SSW,202,3.0,-999.0,-999,-99.99,,,-99.99,,2013-01-11 10:28:00,
2013-01-11 10:34:00,36.2,-99.9,28.94,SSW,202,1.0,-999.0,-999,-99.99,,,-99.99,,2013-01-11 10:34:00,
2013-01-11 10:40:00,36.3,-99.9,28.94,WSW,247,2.0,-999.0,-999,-99.99,,,-99.99,,2013-01-11 10:40:00,
2013-01-11 10:46:00,36.4,-99.9,28.94,SW,225,4.0,-999.0,-999,-99.99,,,-99.99,,2013-01-11 10:46:00,
2013-01-11 10:52:00,36.5,-99.9,28.94,SW,225,4.0,-999.0,-999,-99.99,,,-99.99,,2013-01-11 10:52:00,
2013-01-11 10:58:00,36.6,-99.9,28.94,WSW,247,1.0,-999.0,-999,-99.99,,,-99.99,,2013-01-11 10:58:00,
2013-01-11 11:04:00,37.1,-99.9,28.94,WSW,247,0.0,-999.0,-999,-99.99,,,-99.99,,2013-01-11 11:04:00,
2013-01-11 11:10:00,37.3,-99.9,28.94,WSW,247,0.0,-999.0,-999,-99.99,,,-99.99,,2013-01-11 11:10:00,
2013-01-11 11:16:00,-999.0,-99.9,28.93,North,-999,-999.0,-999.0,-999,-99.99,,,-99.99,,2013-01-11 11:16:00,
2013-01-11 11:22:00,37.4,-99.9,28.94,WSW,247,1.0,-999.0,-999,-99.99,,,-99.99,,2013-01-11 11:22:00,
2013-01-11 11:28:00,37.4,-99.9,28.94,NW,315,3.0,-999.0,-999,-99.99,,,-99.99,,2013-01-11 11:28:00,
2013-01-11 11:34:00,37.6,-99.9,28.94,NW,315,3.0,-999.0,-999,-99.99,,,-99.99,,2013-01-11 11:34:00,
2013-01-11 11:40:00,37.5,-99.9,28.93,WNW,292,3.0,-999.0,-999,-99.99,,,-99.99,,2013-01-11 11:40:00,
2013-01-11 11:46:00,37.7,-99.9,28.94,West,270,2.0,-999.0,-999,-99.99,,,-99.99,,2013-01-11 11:46:00,
2013-01-11 11:52:00,37.7,-99.9,28.94,West,270,1.0,-999.0,-999,-99.99,,,-99.99,,2013-01-11 11:52:00,
2013-01-11 11:58:00,38.0,-99.9,28.93,West,270,2.0,-999.0,-999,-99.99,,,-99.99,,2013-01-11 11:58:00,
2013-01-11 12:04:00,38.1,-99.9,28.93,West,270,0.0,-999.0,-999,-99.99,,,-99.99,,2013-01-11 12:04:00,
2013-01-11 12:10:00,38.4,-99.9,28.93,West,270,2.0,-999.0,-999,-99.99,,,-99.99,,2013-01-11 12:10:00,
2013-01-11 12:16:00,38.4,-99.9,28.93,WSW,247,4.0,-999.0,-999,-99.99,,,-99.99,,2013-01-11 12:16:00,
2013-01-11 12:22:00,38.4,-99.9,28.93,WSW,247,2.0,-999.0,-999,-99.99,,,-99.99,,2013-01-11 12:22:00,
2013-01-11 12:28:00,38.3,-99.9,28.93,WSW,247,4.0,-999.0,-999,-99.99,,,-99.99,,2013-01-11 12:28:00,
2013-01-11 12:34:00,38.3,-99.9,28.93,WSW,247,4.0,-999.0,-999,-99.99,,,-99.99,,2013-01-11 12:34:00,
2013-01-11 12:40:00,38.3,-99.9,28.93,WNW,292,2.0,-999.0,-999,-99.99,,,-99.99,,2013-01-11 12:40:00,
2013-01-11 12:46:00,38.5,-99.9,28.93,WNW,292,2.0,-999.0,-999,-99.99,,,-99.99,,2013-01-11 12:46:00,
2013-01-11 12:52:00,38.5,-99.9,28.93,SW,225,3.0,-999.0,-999,-99.99,,,-99.99,,2013-01-11 12:52:00,
2013-01-11 12:58:00,38.4,-99.9,28.93,WSW,247,1.0,-999.0,-999,-99.99,,,-99.99,,2013-01-11 12:58:00,
2013-01-11 13:04:00,38.3,-99.9,28.93,WSW,247,2.0,-999.0,-999,-99.99,,,-99.99,,2013-01-11 13:04:00,
2013-01-11 13:10:00,38.4,-99.9,28.93,WSW,247,1.0,-999.0,-999,-99.99,,,-99.99,,2013-01-11 13:10:00,
2013-01-11 13:16:00,38.3,-99.9,28.92,WSW,247,1.0,-999.0,-999,-99.99,,,-99.99,,2013-01-11 13:16:00,
2013-01-11 13:22:00,38.5,-99.9,28.92,NW,315,2.0,-999.0,-999,-99.99,,,-99.99,,2013-01-11 13:22:00,
2013-01-11 13:28:00,38.8,-99.9,28.92,NW,315,3.0,-999.0,-999,-99.99,,,-99.99,,2013-01-11 13:28:00,
2013-01-11 13:34:00,38.9,-99.9,28.92,NW,315,2.0,-999.0,-999,-99.99,,,-99.99,,2013-01-11 13:34:00,
2013-01-11 13:40:00,39.0,-99.9,28.92,West,270,4.0,-999.0,-999,-99.99,,,-99.99,,2013-01-11 13:40:00,
2013-01-11 13:46:00,39.3,-99.9,28.92,West,270,2.0,-999.0,-999,-99.99,,,-99.99,,2013-01-11 13:46:00,
2013-01-11 13:52:00,39.7,-99.9,28.91,West,270,3.0,-999.0,-999,-99.99,,,-99.99,,2013-01-11 13:52:00,
2013-01-11 13:58:00,39.8,-99.9,28.92,West,270,3.0,-999.0,-999,-99.99,,,-99.99,,2013-01-11 13:58:00,
2013-01-11 14:04:00,39.5,-99.9,28.92,WSW,247,4.0,-999.0,-999,-99.99,,,-99.99,,2013-01-11 14:04:00,
2013-01-11 14:10:00,39.4,-99.9,28.92,WSW,247,2.0,-999.0,-999,-99.99,,,-99.99,,2013-01-11 14:10:00,
2013-01-11 14:16:00,39.2,-99.9,28.91,WSW,247,2.0,-999.0,-999,-99.99,,,-99.99,,2013-01-11 14:16:00,
2013-01-11 14:22:00,39.1,-99.9,28.91,WSW,247,4.0,-999.0,-999,-99.99,,,-99.99,,2013-01-11 14:22:00,
2013-01-11 14:28:00,39.0,-99.9,-100.00,West,270,2.0,-999.0,-999,-99.99,,,-99.99,,2013-01-11 14:28:00,
2013-01-11 14:34:00,38.9,-99.9,-100.00,West,270,5.0,-999.0,-999,-99.99,,,-99.99,,2013-01-11 14:34:00,
2013-01-11 14:40:00,38.6,-99.9,-100.00,West,270,0.0,-999.0,-999,-99.99,,,-99.99,,2013-01-11 14:40:00,
2013-01-11 14:46:00,38.5,-99.9,-100.00,West,270,3.0,-999.0,-999,-99.99,,,-99.99,,2013-01-11 14:46:00,
2013-01-11 14:52:00,38.3,-99.9,-100.00,West,270,3.0,-999.0,-999,-99.99,,,-99.99,,2013-01-11 14:52:00,
2013-01-11 14:58:00,38.2,-99.9,-100.00,WSW,247,2.0,-999.0,-999,-99.99,,,-99.99,,2013-01-11 14:58:00,
2013-01-11 15:04:00,38.0,-99.9,-100.00,WSW,247,2.0,-999.0,-999,-99.99,,,-99.99,,2013-01-11 15:04:00,
2013-01-11 15:10:00,38.0,-99.9,-100.00,WNW,292,3.0,-999.0,-999,-99.99,,,-99.99,,2013-01-11 15:10:00,
2013-01-11 15:16:00,38.0,-99.9,-100.00,West,270,4.0,-999.0,-999,-99.99,,,-99.99,,2013-01-11 15:16:00,
2013-01-11 15:22:00,37.8,-99.9,-100.00,West,270,3.0,-999.0,-999,-99.99,,,-99.99,,2013-01-11 15:22:00,
2013-01-11 15:28:00,37.8,-99.9,-100.00,WNW,292,3.0,-999.0,-999,-99.99,,,-99.99,,2013-01-11 15:28:00,
2013-01-11 15:34:00,37.6,-99.9,-100.00,West,270,2.0,-999.0,-999,-99.99,,,-99.99,,2013-01-11 15:34:00,
2013-01-11 15:40:00,37.5,-99.9,-100.00,West,270,3.0,-999.0,-999,-99.99,,,-99.99,,2013-01-11 15:40:00,
2013-01-11 15:46:00,37.3,-99.9,28.92,WNW,292,3.0,-999.0,-999,-99.99,,,-99.99,,2013-01-11 15:46:00,
2013-01-11 15:52:00,37.2,-99.9,28.91,WSW,247,3.0,-999.0,-999,-99.99,,,-99.99,,2013-01-11 15:52:00,
2013-01-11 15:58:00,37.1,-99.9,28.92,WNW,292,4.0,-999.0,-999,-99.99,,,-99.99,,2013-01-11 15:58:00,
2013-01-11 16:04:00,37.0,-99.9,28.91,West,270,0.0,-999.0,-999,-99.99,,,-99.99,,2013-01-11 16:04:00,
2013-01-11 16:10:00,36.7,-99.9,28.91,West,270,1.0,-999.0,-999,-99.99,,,-99.99,,2013-01-11 16:10:00,
2013-01-11 16:16:00,36.7,-99.9,28.91,West,270,3.0,-999.0,-999,-99.99,,,-99.99,,2013-01-11 16:16:00,
2013-01-11 16:22:00,36.6,-99.9,28.91,West,270,1.0,-999.0,-999,-99.99,,,-99.99,,2013-01-11 16:22:00,
2013-01-11 16:28:00,36.5,-99.9,28.91,West,270,3.0,-999.0,-999,-99.99,,,-99.99,,2013-01-11 16:28:00,
2013-01-11 16:34:00,36.5,-99.9,28.91,West,270,3.0,-999.0,-999,-99.99,,,-99.99,,2013-01-11 16:34:00,
2013-01-11 16:40:00,36.4,-99.9,28.91,West,270,2.0,-999.0,-999,-99.99,,,-99.99,,2013-01-11 16:40:00,
2013-01-11 16:46:00,36.2,-99.9,28.91,SW,225,2.0,-999.0,-999,-99.99,,,-99.99,,2013-01-11 16:46:00,
2013-01-11 16:52:00,36.0,-99.9,28.91,SW,225,0.0,-999.0,-999,-99.99,,,-99.99,,2013-01-11 16:52:00,
2013-01-11 16:58:00,35.9,-99.9,28.91,SW,225,0.0,-999.0,-999,-99.99,,,-99.99,,2013-01-11 16:58:00,
2013-01-11 17:04:00,35.9,-99.9,28.91,SW,225,0.0,-999.0,-999,-99.99,,,-99.99,,2013-01-11 17:04:00,
2013-01-11 17:10:00,35.8,-99.9,28.91,SW,225,0.0,-999.0,-999,-99.99,,,-99.99,,2013-01-11 17:10:00,
2013-01-11 17:16:00,35.8,-99.9,28.91,SW,225,0.0,-999.0,-999,-99.99,,,-99.99,,2013-01-11 17:16:00,
2013-01-11 17:22:00,35.8,-99.9,28.91,SW,225,0.0,-999.0,-999,-99.99,,,-99.99,,2013-01-11 17:22:00,
2013-01-11 17:28:00,35.7,-99.9,28.91,SW,225,0.0,-999.0,-999,-99.99,,,-99.99,,2013-01-11 17:28:00,
2013-01-11 17:34:00,35.9,-99.9,28.91,SW,225,0.0,-999.0,-999,-99.99,,,-99.99,,2013-01-11 17:34:00,
2013-01-11 17:40:00,35.8,-99.9,28.91,SW,225,0.0,-999.0,-999,-99.99,,,-99.99,,2013-01-11 17:40:00,
2013-01-11 17:46:00,35.7,-99.9,28.91,SW,225,0.0,-999.0,-999,-99.99,,,-99.99,,2013-01-11 17:46:00,
2013-01-11 17:52:00,35.7,-99.9,28.91,SW,225,0.0,-999.0,-999,-99.99,,,-99.99,,2013-01-11 17:52:00,
2013-01-11 17:58:00,35.6,-99.9,28.91,SW,225,0.0,-999.0,-999,-99.99,,,-99.99,,2013-01-11 17:58:00,
2013-01-11 18:04:00,35.5,-99.9,28.91,SW,225,0.0,-999.0,-999,-99.99,,,-99.99,,2013-01-11 18:04:00,
2013-01-11 18:10:00,35.3,-99.9,28.91,SW,225,0.0,-999.0,-999,-99.99,,,-99.99,,2013-01-11 18:10:00,
2013-01-11 18:16:00,35.4,-99.9,28.91,SW,225,3.0,-999.0,-999,-99.99,,,-99.99,,2013-01-11 18:16:00,
2013-01-11 18:22:00,35.5,-99.9,28.91,SW,225,2.0,-999.0,-999,-99.99,,,-99.99,,2013-01-11 18:22:00,
2013-01-11 18:28:00,35.4,-99.9,28.91,SW,225,0.0,-999.0,-999,-99.99,,,-99.99,,2013-01-11 18:28:00,
2013-01-11 18:34:00,35.3,-99.9,28.91,SW,225,0.0,-999.0,-999,-99.99,,,-99.99,,2013-01-11 18:34:00,
2013-01-11 18:40:00,35.2,-99.9,28.90,SW,225,2.0,-999.0,-999,-99.99,,,-99.99,,2013-01-11 18:40:00,
2013-01-11 18:46:00,34.8,-99.9,28.91,SW,225,0.0,-999.0,-999,-99.99,,,-99.99,,2013-01-11 18:46:00,
2013-01-11 18:52:00,34.6,-99.9,28.90,SW,225,0.0,-999.0,-999,-99.99,,,-99.99,,2013-01-11 18:52:00,
2013-01-11 18:58:00,34.4,-99.9,28.90,SW,225,0.0,-999.0,-999,-99.99,,,-99.99,,2013-01-11 18:58:00,
2013-01-11 19:04:00,34.1,-99.9,28.90,SW,225,0.0,-999.0,-999,-99.99,,,-99.99,,2013-01-11 19:04:00,
2013-01-11 19:10:00,33.9,-99.9,28.90,SW,225,0.0,-999.0,-999,-99.99,,,-99.99,,2013-01-11 19:10:00,
2013-01-11 19:16:00,33.6,-99.9,28.90,SW,225,0.0,-999.0,-999,-99.99,,,-99.99,,2013-01-11 19:16:00,
2013-01-11 19:22:00,33.3,-99.9,28.90,SW,225,0.0,-999.0,-999,-99.99,,,-99.99,,2013-01-11 19:22:00,
2013-01-11 19:28:00,33.0,-99.9,28.89,SW,225,2.0,-999.0,-999,-99.99,,,-99.99,,2013-01-11 19:28:00,
2013-01-11 19:34:00,32.9,-99.9,28.89,SW,225,0.0,-999.0,-999,-99.99,,,-99.99,,2013-01-11 19:34:00,
2013-01-11 19:40:00,32.7,-99.9,28.89,NW,315,1.0,-999.0,-999,-99.99,,,-99.99,,2013-01-11 19:40:00,
2013-01-11 19:46:00,32.7,-99.9,28.89,North,0,1.0,-999.0,-999,-99.99,,,-99.99,,2013-01-11 19:46:00,
2013-01-11 19:52:00,32.7,-99.9,28.89,North,0,3.0,-999.0,-999,-99.99,,,-99.99,,2013-01-11 19:52:00,
2013-01-11 19:58:00,32.8,-99.9,28.89,NNE,22,2.0,-999.0,-999,-99.99,,,-99.99,,2013-01-11 19:58:00,
2013-01-11 20:04:00,32.8,-99.9,28.89,NNE,22,0.0,-999.0,-999,-99.99,,,-99.99,,2013-01-11 20:04:00,
2013-01-11 20:10:00,32.6,-99.9,28.89,NNE,22,0.0,-999.0,-999,-99.99,,,-99.99,,2013-01-11 20:10:00,
2013-01-11 20:16:00,32.2,-99.9,28.89,NNE,22,1.0,-999.0,-999,-99.99,,,-99.99,,2013-01-11 20:16:00,
2013-01-11 20:22:00,32.0,-99.9,28.89,NNE,22,0.0,-999.0,-999,-99.99,,,-99.99,,2013-01-11 20:22:00,
2013-01-11 20:28:00,31.9,-99.9,28.89,NNE,22,0.0,-999.0,-999,-99.99,,,-99.99,,2013-01-11 20:28:00,
2013-01-11 20:34:00,31.8,-99.9,28.89,NNE,22,0.0,-999.0,-999,-99.99,,,-99.99,,2013-01-11 20:34:00,
2013-01-11 20:40:00,31.7,-99.9,28.88,NNE,22,0.0,-999.0,-999,-99.99,,,-99.99,,2013-01-11 20:40:00,
2013-01-11 20:46:00,31.5,-99.9,28.89,NNE,22,0.0,-999.0,-999,-99.99,,,-99.99,,2013-01-11 20:46:00,
2013-01-11 20:52:00,31.4,-99.9,28.89,NNE,22,0.0,-999.0,-999,-99.99,,,-99.99,,2013-01-11 20:52:00,
2013-01-11 20:58:00,31.3,-99.9,28.89,NNE,22,0.0,-999.0,-999,-99.99,,,-99.99,,2013-01-11 20:58:00,
2013-01-11 21:04:00,31.3,-99.9,28.89,NNE,22,0.0,-999.0,-999,-99.99,,,-99.99,,2013-01-11 21:04:00,
2013-01-11 21:10:00,31.2,-99.9,28.89,NNE,22,0.0,-999.0,-999,-99.99,,,-99.99,,2013-01-11 21:10:00,
2013-01-11 21:16:00,31.0,-99.9,28.89,NNE,22,0.0,-999.0,-999,-99.99,,,-99.99,,2013-01-11 21:16:00,
2013-01-11 21:22:00,30.9,-99.9,28.89,NNE,22,0.0,-999.0,-999,-99.99,,,-99.99,,2013-01-11 21:22:00,
2013-01-11 21:28:00,30.6,-99.9,28.89,NNE,22,0.0,-999.0,-999,-99.99,,,-99.99,,2013-01-11 21:28:00,
2013-01-11 21:34:00,30.4,-99.9,28.89,NNE,22,0.0,-999.0,-999,-99.99,,,-99.99,,2013-01-11 21:34:00,
2013-01-11 21:40:00,30.2,-99.9,28.89,NNE,22,0.0,-999.0,-999,-99.99,,,-99.99,,2013-01-11 21:40:00,
2013-01-11 21:46:00,29.9,-99.9,28.89,NNE,22,0.0,-999.0,-999,-99.99,,,-99.99,,2013-01-11 21:46:00,
2013-01-11 21:52:00,29.4,-99.9,28.89,NNE,22,0.0,-999.0,-999,-99.99,,,-99.99,,2013-01-11 21:52:00,
2013-01-11 21:58:00,29.2,-99.9,28.89,NNE,22,1.0,-999.0,-999,-99.99,,,-99.99,,2013-01-11 21:58:00,
2013-01-11 22:04:00,29.2,-99.9,28.89,NNE,22,0.0,-999.0,-999,-99.99,,,-99.99,,2013-01-11 22:04:00,
2013-01-11 22:10:00,29.2,-99.9,28.89,NNE,22,0.0,-999.0,-999,-99.99,,,-99.99,,2013-01-11 22:10:00,
2013-01-11 22:16:00,29.1,-99.9,28.89,NNE,22,0.0,-999.0,-999,-99.99,,,-99.99,,2013-01-11 22:16:00,
2013-01-11 22:22:00,28.9,-99.9,28.89,NNE,22,0.0,-999.0,-999,-99.99,,,-99.99,,2013-01-11 22:22:00,
2013-01-11 22:28:00,28.6,-99.9,28.89,NNE,22,0.0,-999.0,-999,-99.99,,,-99.99,,2013-01-11 22:28:00,
2013-01-11 22:34:00,28.7,-99.9,28.89,NNE,22,0.0,-999.0,-999,-99.99,,,-99.99,,2013-01-11 22:34:00,
2013-01-11 22:40:00,29.0,-99.9,28.89,NNE,22,0.0,-999.0,-999,-99.99,,,-99.99,,2013-01-11 22:40:00,
2013-01-11 22:46:00,29.2,-99.9,28.89,NNE,22,0.0,-999.0,-999,-99.99,,,-99.99,,2013-01-11 22:46:00,
2013-01-11 22:52:00,29.4,-99.9,28.89,NNE,22,0.0,-999.0,-999,-99.99,,,-99.99,,2013-01-11 22:52:00,
2013-01-11 22:58:00,29.8,-99.9,28.89,NNE,22,0.0,-999.0,-999,-99.99,,,-99.99,,2013-01-11 22:58:00,
2013-01-11 23:04:00,30.1,-99.9,28.89,NNE,22,0.0,-999.0,-999,-99.99,,,-99.99,,2013-01-11 23:04:00,
2013-01-11 23:10:00,30.5,-99.9,28.89,NNE,22,1.0,-999.0,-999,-99.99,,,-99.99,,2013-01-11 23:10:00,
2013-01-11 23:16:00,31.1,-99.9,28.89,NNE,22,2.0,-999.0,-999,-99.99,,,-99.99,,2013-01-11 23:16:00,
2013-01-11 23:22:00,31.2,-99.9,28.88,NNE,22,2.0,-999.0,-999,-99.99,,,-99.99,,2013-01-11 23:22:00,
2013-01-11 23:28:00,31.3,-99.9,28.88,NNE,22,2.0,-999.0,-999,-99.99,,,-99.99,,2013-01-11 23:28:00,
2013-01-11 23:34:00,31.3,-99.9,28.88,NNE,22,2.0,-999.0,-999,-99.99,,,-99.99,,2013-01-11 23:34:00,
2013-01-11 23:40:00,31.4,-99.9,28.88,NNE,22,0.0,-999.0,-999,-99.99,,,-99.99,,2013-01-11 23:40:00,
2013-01-11 23:46:00,31.4,-99.9,28.88,NNE,22,0.0,-999.0,-999,-99.99,,,-99.99,,2013-01-11 23:46:00,
2013-01-11 23:52:00,31.4,-99.9,28.88,NNE,22,0.0,-999.0,-999,-99.99,,,-99.99,,2013-01-11 23:52:00,
2013-01-11 23:58:00,31.5,-99.9,28.88,NNE,22,0.0,-999.0,-999,-99.99,,,-99.99,,2013-01-11 23:58:00,